www.pogodaiklimat.ru

Погода и климат >> Архив погоды >> Кот-д'Ивуар >> Сан-Педро


ПОГОДА в Сан-Педро

  • Прогноз погоды в Сан-Педро
  • Монитор погоды в Сан-Педро

АРХИВ ПОГОДЫ в Сан-Педро

Время (UTC), дата Ветер
(напр.,м/с)
 
Видим.   Явления Облачность Т
(С)
Тd
(С)
f
(%)
Тe
(С)
Тes
(С)
Комфортность P
(гПа)
Po
(гПа)
Тmin
(С)
Tmax
(С)
R
(мм)
R24
(мм)
S
(см)
06 10.06 С 2 6000 м слаб. дождь 9/9 150 м
[Sc]
+24.4 +23.1 92 +32 +32 очень
душно
1013.2 1009.7 +24.3 0.8
12 10.06 Ю 4 10 км {дождь} 9/5 400 м
[Cu med, cong Ac trans]
+28.5 +23.5 74 +39 +42 очень
душно
1013.8 1010.5 0.2
18 10.06 Ю 4 10 км 8/6 400 м
[Sc Ac trans]
+27.2 +23.0 78 +36 +37 очень
душно
1011.6 1008.3 +29.0 0.2
00 11.06 Ю 5 10 км 9/6 400 м
[Sc Ac trans]
+27.0 +23.9 83 +37 +37 очень
душно
1013.2 1009.9
06 11.06 Ю 4 10 км 9/6 330 м
[Cu med, cong Ac trans]
+26.2 +23.5 85 +36 +36 очень
душно
1012.5 1009.2 +26.1 0.2
12 11.06 Ю 4 10 км 3/3 450 м
[Cu med, cong]
+29.4 +24.7 76 +42 +51 опасность
перегрева
1014.3 1011.0
18 11.06 Ю 4 10 км 5/4 400 м
[Cu med, cong Ac trans]
+27.3 +23.8 81 +37 +38 очень
душно
1011.9 1008.6 +29.7
00 12.06 Ю 3 10 км ясно +26.4 +23.9 86 +36 +36 очень
душно
1013.0 1009.7
06 12.06 С 1 4000 м дымка 5/3 400 м
[Cu med, cong Ac trans]
+24.3 +23.4 95 +33 +33 очень
душно
1013.6 1010.2 +24.3
12 12.06 Ю 5 10 км 3/3 400 м
[Cu med, cong Ci fib]
+29.0 +23.9 74 +40 +47 очень
душно
1015.1 1011.8
18 12.06 Ю 5 10 км 3/3 400 м
[Cu med, cong]
+27.5 +22.9 76 +37 +37 очень
душно
1012.8 1009.5 +29.6
00 13.06 8000 м н/о +26.5 +26.5 100 +40 +40 очень
душно
1014.6 1001.5
06 13.06 С 1 8000 м 3/3 330 м
[Cu med, cong Ac lent]
+22.8 +22.1 96 +31 +31 очень
душно
1014.7 1011.3 +22.7
12 13.06 Ю 4 10 км 4/4 450 м
[Cu med, cong]
+28.7 +23.4 73 +39 +47 очень
душно
1015.8 1012.5
18 13.06 Ю 5 10 км 1/1 400 м
[Cu med, cong]
+27.5 +23.1 77 +37 +37 очень
душно
1012.6 1009.2 +29.4
21 13.06 ЮЗ 4 10 км 1/1 400 м
[Sc]
+26.7 +23.6 83 +36 +36 очень
душно
1014.2 1010.9
00 14.06 ЮЗ 3 10 км 1/1 400 м
[Sc]
+26.4 +23.7 85 +36 +36 очень
душно
1015.0 1011.7
03 14.06 СЗ 2 10 км 8/1 400 м
[Sc Ac trans]
+24.8 +23.6 93 +34 +34 очень
душно
1013.8 1010.4
06 14.06 З 2 10 км 3/3 400 м
[Sc]
+24.4 +23.0 92 +32 +32 очень
душно
1013.8 1010.4 +24.3
09 14.06 СЗ 2 10 км 8/8 400 м
[Cu med, cong]
+26.7 +24.1 86 +37 +39 очень
душно
1015.3 1011.9
12 14.06 ЮЗ 5 10 км 8/8 400 м
[Cu med, cong]
+28.4 +23.9 77 +39 +41 очень
душно
1014.9 1011.5
15 14.06 Ю 5 10 км 5/3 400 м
[Cu med, cong Ci sp]
+28.8 +24.1 76 +40 +44 очень
душно
1012.6 1009.3
18 14.06 ЮЗ 4 10 км 4/1 400 м
[Sc Ci sp]
+27.8 +24.0 80 +39 +39 очень
душно
1011.9 1008.6 +29.9
21 14.06 Ю 4 10 км 6/6 400 м
[Sc]
+26.8 +24.4 87 +38 +38 очень
душно
1014.2 1010.8
03 15.06 ЮВ 4 8000 м в посл. час дождь 9/9 330 м
[Sc]
+25.0 +24.0 94 +34 +34 очень
душно
1012.6 1009.1
06 15.06 ЮЗ 3 6000 м {дождь} 9/9 400 м
[Sc]
+25.0 +24.4 96 +35 +35 очень
душно
1013.2 1009.7 +24.3 9
09 15.06 Ю 2 10 км 10/10 400 м
[Sc]
+25.6 +24.4 93 +36 +36 очень
душно
1014.6 1011.2
12 15.06 ЮЗ 2 6000 м слаб. дождь 10/10 400 м
[Sc]
+24.6 +24.3 98 +34 +34 очень
душно
1014.7 1011.3
15 15.06 штиль 0 4000 м слаб. дождь 9/9 150 м
[Cu med, cong]
+24.5 +24.3 99 +34 +36 очень
душно
1013.4 1010.0
18 15.06 ЮЗ 4 8000 м {дождь} 10/6 180 м
[Sc Ac As]
+25.7 +23.9 90 +35 +35 очень
душно
1013.3 1010.0 +26.0 31
21 15.06 СЗ 1 10 км 9/5 400 м
[Sc Ac As]
+25.4 +24.2 93 +35 +35 очень
душно
1015.8 1012.4
00 16.06 СЗ 1 10 км 9/4 400 м
[Sc Ac As]
+25.0 +24.0 94 +34 +34 очень
душно
1015.6 1012.2
03 16.06 штиль 0 10 км 9/3 400 м
[Sc Ac As]
+24.4 +23.9 97 +33 +33 очень
душно
1013.6 1010.2
06 16.06 С 1 8000 м 9/9 400 м
[Sc]
+24.3 +24.0 98 +33 +33 очень
душно
1013.8 1010.4 +24.1 34
09 16.06 СЗ 2 8000 м 9/3 400 м
[Cu med, cong Ac trans]
+26.8 +24.5 87 +38 +40 очень
душно
1015.1 1011.8
12 16.06 Ю 4 10 км 9/4 400 м
[Cu med, cong Ac trans]
+27.5 +24.4 83 +39 +42 очень
душно
1015.3 1012.0
15 16.06 Ю 5 10 км 9/5 400 м
[Cb cap Ac trans]
+26.2 +24.2 89 +36 +38 очень
душно
1013.2 1009.9
18 16.06 ЮЗ 4 10 км 9/9 400 м
[Cu med, cong]
+26.5 +24.0 86 +37 +37 очень
душно
1012.9 1009.6 +28.3
21 16.06 Ю 2 10 км 9/9 400 м
[Sc]
+26.0 +24.2 90 +36 +36 очень
душно
1015.1 1011.8
00 17.06 Ю 3 10 км 9/6 400 м
[Sc Ac trans]
+26.1 +24.3 90 +36 +36 очень
душно
1014.6 1011.3

 

Местоположение метеостанции Сан-Педро (Кот-д'Ивуар): широта 4.75 долгота -6.65 высота над уровнем моря 30 м.

В архиве по умолчанию представлена погода в Сан-Педро за последнюю неделю. Архивные данные за месяц целиком и за предыдущие месяцы, начиная с января 2011 года, Вы можете получить, выбрав интересующий диапазон дат из раскрывающегося списка и нажав кнопку "Ввод!".


*Определитесь, кто Вы:
робот инопланетянин человек

Внимание! Время в таблицах - всемирное. Для получения местного времени необходимо прибавить поправку, которая равна 0 ч.

Смотрите также архив погоды в соседних городах и на ближайших метеорологических станциях:

Погода в Сассандре (Кот-д'Ивуар) (67 км)
Погода в Табу (Кот-д'Ивуар) (88 км)
Погода в Ганьоа (Кот-д'Ивуар) (172 км)
Погода в Далоа (Кот-д'Ивуар) (237 км)
Погода в Ямусукро (Кот-д'Ивуар) (279 км)
Погода в Димбокро (Кот-д'Ивуар) (302 км)
Погода в Абиджане (Кот-д'Ивуар) (306 км)
Погода в Мане (Кот-д'Ивуар) (308 км)
Погода в Буаке (Кот-д'Ивуар) (375 км)
Погода в Адиаке (Кот-д'Ивуар) (376 км)

Пояснения к столбцам:

Ветер - указаны скорость ветра в м/с - средняя за 10 мин, порывы в срок и между сроками (в фигурных скобках) и направление, откуда дует ветер: С - северный, СВ - северо-восточный, В - восточный, ЮВ - юго-восточный, Ю - южный, ЮЗ - юго-западный, З - западный, СЗ - северо-западный.
Видимость - горизонтальная дальность видимости в метрах или километрах. При видимости от 1 до 10 км при отсутствии осадков обычно наблюдается дымка, при ухудшении видимости до 1 км и менее - туман. В сухую погоду видимость может ухудшаться дымом, пылью или мглою.
Явления - указаны атмосферные явления, наблюдавшиеся в срок или в последний час перед сроком; фигурными скобками обозначены явления, наблюдавшиеся между сроками (за 1-3 часа до срока); квадратными скобками обозначены град или гололедные отложения с указанием их диаметра в мм.
Облачность - указаны через наклонную черту общая и нижняя облачность в баллах и высота нижней границы облаков в метрах; квадратными скобками обозначены формы облаков: Ci - перистые, Cs - перисто-слоистые, Cc - перисто-кучевые, Ac - высококучевые, As - высокослоистые, Sc - слоисто-кучевые, Ns - слоисто-дождевые, Cu - кучевые, Cb - кучево-дождевые. Подробнее классификацию облаков см. в Атласе облаков (PDF).
T - Температура воздуха - температура, измеренная на высоте 2 м над землей.
Td - Температура точки росы - температура, при понижении до которой содержащийся в воздухе водяной пар достигнет насыщения.
f - Относительная влажность воздуха - влажноcть воздуха, измеренная на высоте 2 м над землей.
Te - Эффективная температура - температура, которую ощущает одетый по сезону человек в тени. Характеристика душности погоды. При расчете учитывается влияние влажности воздуха и скорости ветра на теплоощущения человека.
Tes - Эффективная температура на солнце - температура, которую ощущает человек, с поправкой на солнечный нагрев. Характеристика знойности погоды. Зависит от высоты солнца над горизонтом, облачности и скорости ветра. Ночью, в пасмурную погоду, а также при ветре 12 м/с и более поправка равна нулю.
P - Атмосферное давление - приведенное к уровню моря атмосферное давление.
Po - Атмосферное давление - измеренное на уровне метеостанции атмосферное давление.
Tmin - Минимальная температура - минимум температуры воздуха на высоте 2 м над землей.
Tmax - Максимальная температура - максимум температуры воздуха на высоте 2 м над землей.
R - Количество осадков - Количество выпавших осадков за период времени, мм. При наведении курсора мыши на число - период времени, за который выпало указанное количество осадков.
R24 - Количество осадков - Количество выпавших осадков за 24 часа, мм.
S - Снежный покров - Высота снежного покрова, см. При наведении курсора мыши на число - состояние снежного покрова и степень покрытия местности в баллах.